Hayward, WI

11:02 PM CST on February 06, 2016 (GMT -0600)
Sawyer County

Weather History for KHYR - September, 2011

Change the Weather History Date:

Thursday, September 22, 2011

  Actual Average Record
Temperature  
Mean Temperature 42 °F -  
Max Temperature 46 °F 58 °F 81 °F (2004)
Min Temperature 37 °F 44 °F 25 °F (1998)
Degree Days  
Heating Degree Days 24    
Moisture  
Dew Point 40 °F    
Average Humidity 89    
Maximum Humidity 93    
Minimum Humidity 80    
Precipitation  
Precipitation 0.01 in - - ()
Sea Level Pressure  
Sea Level Pressure 30.11 in    
Wind  
Wind Speed 2 mph (NW)    
Max Wind Speed 5 mph    
Max Gust Speed -    
Visibility 10 miles    
Events Rain    
Averages and records for this station are not official NWS values.
T = Trace of Precipitation, MM = Missing Value Source: NWS Daily Summary

Daily Weather History Graph

Daily Weather History Graph

Search for Another Location

Airport or City:

Trip Planner

Search our weather history database for the weather conditions in past years. The results will help you decide how hot, cold, wet, or windy it might be!

Date:

Astronomy

Sep. 22, 2011 Rise Set
Actual Time 6:52 AM CDT 7:03 PM CDT
Civil Twilight 6:22 AM CDT 7:33 PM CDT
Nautical Twilight 5:47 AM CDT 8:08 PM CDT
Astronomical Twilight 5:11 AM CDT 8:44 PM CDT
Moon 12:56 AM CDT (9/22) 4:11 PM CDT (9/22)
Length of Visible Light 13h 11m
Length of Day
12h 11m
Waning Crescent, 28% of the Moon is Illuminated
Sep 22
Waning Crescent
Sep 27
New
Oct 3
First Quarter
Oct 11
Full
Oct 19
Last Quarter

Hourly Weather History & Observations

Time (CDT) Temp. Windchill Dew Point Humidity Pressure Visibility Wind Dir Wind Speed Gust Speed Precip Events Conditions
12:14 AM 44.6 °F 43.1 °F 41.0 °F 87% 30.00 in 10.0 mi Variable 3.5 mph - N/A   Overcast
12:53 AM 42.1 °F 40.2 °F 39.0 °F 89% 30.03 in 10.0 mi Variable 3.5 mph - N/A   Clear
1:53 AM 39.9 °F 37.8 °F 37.0 °F 89% 30.05 in 10.0 mi WNW 3.5 mph - N/A   Partly Cloudy
2:11 AM 39.2 °F 37.0 °F 37.4 °F 93% 30.03 in 10.0 mi WNW 3.5 mph - N/A   Mostly Cloudy
2:53 AM 39.9 °F - 37.9 °F 93% 30.05 in 10.0 mi Calm Calm - N/A   Mostly Cloudy
3:11 AM 39.2 °F - 37.4 °F 93% 30.02 in 10.0 mi Calm Calm - N/A   Scattered Clouds
3:53 AM 39.9 °F 36.7 °F 37.0 °F 89% 30.05 in 10.0 mi Variable 4.6 mph - N/A   Mostly Cloudy
4:53 AM 39.0 °F - 37.0 °F 93% 30.06 in 10.0 mi Calm Calm - N/A   Scattered Clouds
5:51 AM 37.4 °F - 35.6 °F 93% 30.05 in 10.0 mi Calm Calm - N/A   Mostly Cloudy
5:53 AM 37.9 °F - 36.0 °F 93% 30.08 in 10.0 mi Calm Calm - N/A   Mostly Cloudy
6:53 AM 39.0 °F - 37.0 °F 93% 30.09 in 10.0 mi Calm Calm - N/A   Overcast
7:53 AM 41.0 °F - 37.9 °F 89% 30.11 in 10.0 mi Calm Calm - N/A   Overcast
8:26 AM 41.0 °F 39.0 °F 39.2 °F 93% 30.08 in 10.0 mi Variable 3.5 mph - 0.00 in Rain Light Rain
9:03 AM 41.0 °F 38.0 °F 39.2 °F 93% 30.09 in 10.0 mi NW 4.6 mph - 0.00 in Rain Light Rain
9:53 AM 42.1 °F 39.2 °F 39.0 °F 89% 30.13 in 10.0 mi Variable 4.6 mph - 0.00 in   Overcast
10:53 AM 43.0 °F 40.3 °F 39.9 °F 89% 30.13 in 10.0 mi Variable 4.6 mph - 0.00 in Rain Light Rain
11:32 AM 44.6 °F 42.2 °F 39.2 °F 81% 30.11 in 10.0 mi Variable 4.6 mph - 0.00 in   Overcast
11:40 AM 44.6 °F 43.1 °F 39.2 °F 81% 30.11 in 10.0 mi Variable 3.5 mph - 0.00 in Rain Light Rain
11:53 AM 44.1 °F - 39.9 °F 85% 30.14 in 10.0 mi Calm Calm - 0.00 in   Overcast
12:01 PM 44.6 °F - 39.2 °F 81% 30.11 in 10.0 mi Calm Calm - N/A   Overcast
12:20 PM 44.6 °F 43.1 °F 39.2 °F 81% 30.12 in 10.0 mi Variable 3.5 mph - N/A   Overcast
12:53 PM 45.0 °F - 39.0 °F 80% 30.15 in 10.0 mi Calm Calm - N/A   Overcast
1:53 PM 45.0 °F - 41.0 °F 86% 30.16 in 7.0 mi Calm Calm - 0.00 in Rain Light Rain
2:53 PM 44.1 °F - 42.1 °F 93% 30.16 in 8.0 mi Calm Calm - 0.00 in Rain Light Rain
3:53 PM 45.0 °F 43.5 °F 43.0 °F 93% 30.17 in 10.0 mi WNW 3.5 mph - 0.01 in   Overcast
4:53 PM 46.0 °F - 41.0 °F 83% 30.16 in 10.0 mi Calm Calm - N/A   Overcast
5:53 PM 45.0 °F - 41.0 °F 86% 30.17 in 10.0 mi Calm Calm - N/A   Overcast
6:09 PM 44.6 °F 43.1 °F 41.0 °F 87% 30.13 in 10.0 mi WNW 3.5 mph - N/A   Overcast
6:29 PM 44.6 °F - 41.0 °F 87% 30.14 in 10.0 mi Calm Calm - N/A   Overcast
6:53 PM 45.0 °F - 41.0 °F 86% 30.18 in 10.0 mi Calm Calm - N/A   Overcast
7:53 PM 45.0 °F - 42.1 °F 90% 30.19 in 10.0 mi Calm Calm - N/A   Overcast
8:41 PM 44.6 °F - 42.8 °F 93% 30.15 in 10.0 mi Calm Calm - N/A   Overcast
8:53 PM 45.0 °F - 42.1 °F 90% 30.19 in 10.0 mi Calm Calm - N/A   Overcast
9:53 PM 44.1 °F - 42.1 °F 93% 30.19 in 10.0 mi Calm Calm - N/A   Overcast
11:53 PM 44.1 °F - 42.1 °F 93% 30.19 in 10.0 mi Calm Calm - N/A   Overcast